RH
38 38 36 32 32 32 30 34 34 31 29 30 30 34 36 40 45 55 62 62 56 47 45 44 48 52 61 66 78 69 76 71 89 80 54 51 76 71 77 72 66 77 83
40 37 35 35 39 42 37 32 27 25 25 26 28 30 31 35 40 45 56 45 38 41 44 41 38 38 40 45 49 68 70 62 81 90 87 81 58 48 80 74 74 91 84
40 51 54 54 55 44 33 30 28 28 30 32 33 34 36 37 39 39 38 34 38 38 41 42 36 32 36 42 49 51 62 64 56 78 98 87 90 92 66 55 85 87 87
50 55 61 55 43 37 32 32 31 31 32 32 32 31 30 29 29 29 28 30 28 28 28 24 22 22 22 23 28 40 49 56 53 56 70 91 98 91 87 70 48 48 57
44 44 45 43 31 30 33 33 34 35 33 32 31 30 28 26 26 27 24 22 22 24 26 28 28 25 24 24 24 24 25 32 41 51 55 63 76 93 100 94 78 40 42
35 37 39 33 31 34 37 38 37 35 34 33 31 29 26 24 24 24 25 24 25 28 29 27 24 21 18 16 15 15 18 21 25 34 43 60 84 97 96 93 96 98 60
35 36 34 36 40 40 38 38 37 37 37 35 34 31 29 28 26 25 24 25 26 27 26 26 25 22 18 15 14 14 14 14 16 19 22 33 51 76 91 98 96 95 75
38 37 41 47 43 40 38 37 38 39 38 38 38 36 32 30 29 26 24 25 26 27 25 21 18 15 14 13 13 13 13 13 13 13 15 17 22 36 57 84 99 99 100
47 48 48 42 40 42 43 44 45 46 46 47 43 37 35 32 29 29 34 39 36 31 25 22 20 18 16 16 16 15 16 17 15 14 14 13 13 19 30 43 72 95 99
50 46 45 47 47 47 48 48 49 50 45 45 44 42 43 43 42 43 48 49 48 44 43 38 31 28 25 20 20 19 19 21 18 18 17 15 15 15 18 25 37 55 87
47 48 50 49 47 45 47 53 55 56 49 48 50 51 52 54 55 55 53 44 44 47 51 47 41 39 35 28 21 22 23 26 24 20 21 18 18 19 20 25 30 43 66
51 50 48 47 46 48 57 57 54 53 54 55 56 58 59 59 59 58 58 55 53 52 55 55 54 47 36 29 28 28 31 33 29 23 22 19 21 26 25 24 23 27 44
56 55 54 53 52 51 52 52 48 42 30 22 20 22 30 35 34 37 44 50 59 62 63 64 63 53 52 44 37 36 35 33 36 37 34 32 33 25 19 16 16 19 28
52 58 56 54 54 54 53 50 48 42 37 25 14 21 31 32 33 44 59 65 64 64 68 69 50 56 57 52 48 43 31 32 42 40 38 47 49 38 31 25 21 17 23
42 45 45 45 43 39 38 36 26 14 15 21 31 25 20 21 29 43 56 58 63 61 60 58 52 42 38 36 32 31 36 44 48 44 41 42 41 41 38 35 26 30 82
36 36 31 26 21 17 17 19 21 20 19 20 22 21 19 17 14 15 31 56 65 65 61 58 55 34 34 32 33 39 44 44 44 40 33 30 36 36 39 36 38 47 54
31 30 25 21 21 24 27 29 34 36 27 25 24 26 26 26 26 21 27 45 51 53 45 41 38 33 28 25 28 35 46 45 40 38 34 34 36 36 39 35 37 40 52
30 26 30 30 32 34 33 33 36 41 35 32 31 30 30 30 29 30 33 39 41 47 50 51 47 39 30 23 27 33 43 40 36 36 35 38 34 37 49 45 31 24 31
37 38 40 40 42 43 42 43 44 47 47 42 37 33 35 34 34 35 39 40 37 40 47 46 44 39 36 25 28 40 45 44 34 27 31 38 40 34 49 54 40 36 28
37 40 40 40 41 40 41 45 46 48 46 37 35 35 36 33 36 39 39 42 39 41 53 52 49 47 47 45 39 45 58 56 43 34 27 30 44 43 46 58 46 43 40
29 36 36 36 34 29 37 42 42 40 38 36 37 38 36 40 43 47 49 50 46 52 55 52 48 48 42 43 45 43 51 56 49 48 40 37 41 47 50 58 48 44 45
24 30 36 33 25 26 39 41 40 39 39 39 41 42 45 49 51 54 55 54 53 55 55 51 46 42 39 41 48 49 50 56 74 67 58 51 50 57 60 56 48 45 62
22 26 31 31 32 36 38 43 43 42 42 44 48 53 57 59 62 62 60 61 62 61 59 57 57 53 49 53 55 58 62 64 63 61 59 59 57 55 63 64 63 54 61
26 28 31 36 39 42 45 45 50 54 57 60 63 68 71 72 71 71 71 69 68 66 64 64 65 66 66 66 67 69 69 66 64 63 68 69 66 64 69 70 65 66 81
29 34 42 44 46 48 54 59 64 67 69 73 75 80 82 82 85 87 86 84 82 80 79 81 85 85 85 82 83 86 87 88 86 95 96 93 89 85 78 73 70 71 74
41 44 49 54 58 62 67 68 68 72 82 87 90 92 92 92 93 96 94 89 90 87 81 78 83 92 95 93 85 79 79 89 92 95 95 93 93 90 82 85 84 96 99
Wind_Speed
14 10 7 8 7 5 4 3 2 2 2 2 2 3 5 7 9 10 11 13 15 16 14 13 13 13 13 15 16 16 17 15 19 23 20 11 8 11 7 3 4 16 15
15 11 10 9 8 6 5 3 2 3 3 4 4 6 7 8 9 11 13 14 12 12 12 13 12 13 13 13 13 13 16 17 15 20 19 14 9 7 6 8 1 1 10
17 14 11 10 8 6 4 3 3 2 3 4 5 5 6 8 9 10 9 9 10 11 10 10 11 12 13 14 13 12 13 17 14 13 11 9 7 29 3 9 1 3 4
15 14 12 8 6 6 6 4 2 2 3 4 6 8 9 10 11 10 8 7 7 8 8 10 11 12 13 13 15 14 13 14 16 16 10 10 14 10 18 20 16 13 10
16 15 11 8 7 7 5 3 2 1 4 6 8 10 11 12 11 9 8 7 7 9 10 12 14 15 16 16 16 16 16 15 15 14 17 17 15 16 19 27 27 23 16
16 13 10 7 7 6 4 2 2 3 6 8 10 13 13 12 11 10 11 11 11 13 15 16 17 18 19 19 19 18 17 17 17 16 15 16 17 19 20 24 26 30 30
15 12 9 8 6 4 3 3 4 7 9 12 15 15 15 14 14 14 14 15 16 17 18 19 20 22 22 21 21 21 20 19 19 19 19 18 19 20 20 23 30 30 35
12 10 8 5 3 3 3 6 10 13 14 16 16 15 15 15 15 15 16 17 18 19 21 22 23 24 24 24 24 23 23 22 22 22 21 22 22 19 20 22 23 30 29
11 8 5 1 1 4 7 10 12 13 16 18 17 16 16 16 16 17 18 20 21 22 23 23 24 25 25 26 26 26 26 26 25 25 24 24 24 23 22 21 22 22 28
10 6 4 3 5 6 9 11 11 13 14 13 14 16 18 20 22 24 26 28 29 29 28 28 27 28 29 29 29 28 27 27 27 28 27 27 26 26 25 25 23 22 25
10 5 3 2 7 8 5 8 9 10 12 15 18 21 24 26 29 30 32 33 34 35 35 33 31 32 33 32 31 31 31 30 29 27 27 29 28 29 29 27 26 25 23
9 5 2 2 4 1 3 4 5 7 9 14 17 20 24 26 30 35 37 37 39 37 31 29 30 30 31 31 32 33 32 31 31 30 29 29 26 27 28 29 30 29 28
7 6 3 1 1 3 5 8 11 15 19 26 31 33 33 34 36 37 37 37 36 28 24 26 31 36 34 32 31 31 33 33 32 30 29 28 27 28 26 26 29 30 29
5 1 2 5 8 12 15 19 22 26 31 36 41 39 37 37 37 33 28 30 29 29 30 37 38 36 36 35 33 33 34 32 31 30 29 28 29 29 27 26 26 26 28
2 1 5 9 13 17 21 24 29 32 31 29 26 26 28 30 31 32 31 30 34 35 36 34 33 32 32 33 33 32 30 28 28 28 28 28 27 25 24 25 24 23 21
5 7 11 17 21 23 24 24 23 20 21 23 27 29 31 33 35 35 33 33 36 38 39 33 32 34 34 35 34 33 31 30 30 30 29 28 26 24 22 21 20 21 22
7 15 21 23 21 20 21 23 24 24 26 28 30 34 38 41 42 40 36 34 34 32 30 32 32 34 34 34 34 34 32 31 31 31 30 29 27 25 23 22 21 22 20
19 22 21 20 19 21 24 26 27 29 31 33 36 38 41 42 43 43 41 38 38 37 37 37 36 34 36 35 34 31 30 30 30 29 29 28 29 27 25 24 24 24 22
22 22 23 25 27 28 31 33 34 34 36 38 41 42 42 43 44 42 42 43 43 40 39 38 37 40 40 39 36 32 32 31 31 30 29 28 28 28 24 24 25 25 25
21 23 26 28 30 31 32 33 36 37 39 42 44 43 43 45 43 42 43 44 43 40 38 38 37 40 42 43 40 37 33 32 32 32 31 28 27 27 24 24 24 26 27
23 24 27 30 32 32 31 34 36 39 43 43 44 44 47 46 44 44 42 43 42 41 37 38 41 41 41 41 39 35 30 29 29 29 30 28 25 24 24 23 25 27 26
26 25 29 32 33 31 32 36 40 42 44 44 44 46 45 44 42 43 44 44 41 39 41 41 40 39 38 36 37 35 31 28 27 29 29 29 28 26 25 28 29 27 24
27 28 30 34 35 36 36 38 40 41 42 43 43 42 42 39 42 43 42 42 40 40 39 39 37 38 37 37 37 35 32 30 29 30 30 29 30 29 30 32 33 29 27
29 30 33 36 39 39 36 36 37 39 39 41 41 41 41 41 37 38 38 37 37 37 38 36 34 36 37 38 39 37 36 34 32 31 29 29 32 31 31 32 33 33 32
32 32 33 35 37 38 39 39 38 38 40 40 39 38 36 35 36 36 35 34 35 34 36 36 34 35 37 40 36 34 34 34 35 32 33 33 32 32 34 37 39 38 36
32 35 36 35 38 40 40 40 37 36 35 38 37 35 35 36 36 38 40 36 34 35 36 38 37 38 37 38 39 38 36 34 32 32 34 35 35 35 36 36 34 30 30
Wind_Direction
176 182 194 184 177 170 169 165 162 110 67 30 351 310 295 288 297 303 303 305 309 308 309 309 311 310 307 310 317 319 326 335 342 338 331 350 3 35 14 334 261 262 281
178 179 182 181 177 178 175 168 129 94 53 29 15 2 348 332 319 313 308 308 309 310 316 321 322 320 316 314 313 320 322 328 336 344 349 343 353 333 54 31 282 326 257
174 169 173 180 185 186 177 168 147 117 48 21 6 356 343 324 308 299 301 306 311 314 322 328 332 331 327 326 328 322 316 316 328 333 347 337 325 328 287 332 7 287 291
173 178 184 190 204 206 189 182 153 74 18 356 348 340 329 313 305 308 315 316 313 318 324 329 332 332 330 326 324 324 319 313 314 317 313 294 302 315 317 303 302 309 290
180 182 193 205 200 186 182 172 166 334 337 337 332 322 310 300 296 297 300 303 307 309 314 319 320 321 320 318 315 312 311 312 307 303 305 302 298 294 298 303 305 302 296
182 188 194 192 179 176 183 201 262 318 322 322 316 306 298 295 293 294 295 300 306 311 314 317 317 316 314 313 311 307 306 304 301 299 292 288 293 292 293 294 299 302 303
183 188 189 181 182 189 224 270 305 314 314 313 306 301 301 301 300 300 302 304 307 311 313 314 314 313 311 309 306 303 300 298 296 296 296 291 283 281 281 286 290 294 297
182 183 180 194 218 247 294 310 311 313 309 305 303 305 303 301 301 302 305 308 310 312 313 313 312 311 309 307 305 302 299 296 293 291 290 291 291 286 281 281 286 297 293
167 174 190 207 307 308 318 318 312 315 313 309 303 302 300 299 298 300 304 307 309 309 308 308 308 309 309 308 306 302 299 297 293 289 287 286 286 288 288 280 275 279 289
166 163 175 231 262 287 298 298 306 313 317 314 317 321 318 313 306 303 305 307 307 305 304 305 305 307 308 307 303 299 296 294 293 292 289 285 283 282 282 283 282 274 273
155 148 126 284 297 299 281 275 290 304 319 321 320 316 316 313 308 303 303 306 306 306 297 299 301 306 306 303 299 295 293 290 288 285 284 283 284 281 281 282 280 278 277
126 122 107 337 319 243 223 278 313 320 305 300 300 299 296 296 295 297 297 298 300 297 292 295 301 306 302 297 294 293 291 290 288 287 283 282 278 276 276 278 281 281 278
124 121 141 229 308 298 282 283 295 299 304 309 309 303 296 296 300 297 294 291 288 285 290 294 300 302 300 297 293 290 289 287 285 285 283 281 280 283 282 278 277 277 278
83 116 289 307 306 298 292 292 295 300 300 304 304 304 307 308 305 296 302 302 289 279 282 293 297 292 296 295 296 294 291 286 283 281 279 278 281 283 282 281 280 281 277
34 352 309 305 302 302 299 298 299 304 304 307 314 320 321 321 322 316 304 298 294 294 295 292 291 297 297 297 296 296 293 290 288 285 281 278 280 281 282 286 284 283 282
315 304 313 318 316 314 312 310 311 313 315 313 314 317 319 320 319 312 313 304 298 297 297 288 290 297 297 296 295 295 294 292 288 287 284 282 280 280 283 287 283 281 283
304 315 319 317 316 315 315 312 310 307 313 314 316 317 318 317 317 315 312 305 307 304 296 299 295 297 299 297 292 289 290 289 287 283 281 280 279 281 284 288 287 283 283
318 317 314 310 310 315 318 318 315 311 308 309 311 312 313 313 313 312 310 307 304 301 296 296 296 298 298 296 297 296 294 288 284 280 279 279 279 277 281 287 284 283 282
311 311 315 314 312 311 312 309 310 307 306 303 306 309 311 311 311 308 305 304 303 300 296 295 296 299 298 298 297 298 298 296 289 283 280 276 277 276 278 281 284 285 280
312 310 310 310 308 310 309 307 306 305 305 306 305 306 306 308 306 307 304 301 300 296 296 293 294 296 296 298 300 301 297 294 291 287 284 281 277 277 274 272 281 285 285
313 311 309 309 310 310 310 307 306 303 304 305 303 302 305 305 303 304 300 300 299 298 292 295 295 293 293 294 294 296 296 289 288 287 285 283 282 277 275 272 280 280 286
316 314 312 312 313 312 311 307 305 307 307 306 302 302 302 303 301 300 297 298 297 293 293 294 295 296 296 296 296 296 294 290 282 286 290 289 284 280 273 276 275 279 279
317 317 316 316 314 314 313 308 308 309 306 306 304 303 304 301 298 296 294 296 295 293 290 293 293 296 297 296 295 293 290 287 284 283 283 282 280 276 274 270 271 279 272
319 320 319 316 313 315 312 308 309 311 308 304 302 304 301 301 298 295 292 290 288 285 283 286 285 288 289 289 291 291 291 289 287 285 283 276 274 272 271 269 271 274 272
317 317 315 313 310 312 313 314 314 311 308 307 309 308 304 301 299 296 294 292 289 285 285 284 283 284 282 282 285 284 284 284 287 290 287 282 276 269 264 265 268 273 273
315 313 314 316 315 315 316 316 316 316 314 311 309 305 304 301 300 299 298 297 291 290 288 287 285 283 280 279 280 282 281 280 280 279 277 275 273 272 271 272 275 275 273